Regional Weather Roundup
Issued by NWS State College, PA

Home | Current Version | Previous Version | Text Only | Print | Product List | Glossary On
Versions: 1 2 3 4 5 6 7 8 9 10 11 12 13 14 15 16 17 18 19 20 21 22 23 24 25 26 27 28 29 30 31 32 33 34 35 36 37 38 39 40 41 42 43 44 45 46 47 48 49 50
000
ASUS41 KCTP 201210
RWRCTP

REGIONAL WEATHER ROUNDUP
NATIONAL WEATHER SERVICE STATE COLLEGE PA
800 AM EDT WED AUG 20 2014

Note: "fair" indicates few or no clouds below 12,000 feet with no
significant weather and/or obstructions to visibility.

* = STATION THAT DOES NOT REPORT PRECIPITATION /E.G. RAIN...SNOW...ETC/
    THUNDER OR FOG.

PAZ002>004-007>009-013>016-020>023-029>032-201300-
WESTERN PENNSYLVANIA

CITY           SKY/WX    TMP DP  RH WIND       PRES   REMARKS
ERIE           CLOUDY    67  62  84 S10       29.87S
MEADVILLE      LGT RAIN  64  62  93 S7        29.93R
FRANKLIN*      CLOUDY    63  61  94 S12       29.94S
NEW CASTLE     NOT AVBL
BEAVER COUNTY  TSTM      64  64 100 SW7       29.96R
BUTLER*        CLOUDY    64  61  88 S3        29.97R
PITTSBURGH INT HVY RAIN  65  64  97 W7        29.96R
PITTSBURGH     LGT RAIN  64  63  94 E6        29.93F FOG
INDIANA*       CLOUDY    64  64 100 CALM      30.01R FOG
LATROBE        LGT RAIN  66  66 100 VRB6      29.98R FOG
WASHINGTON CO* CLOUDY    64  63  94 CALM      29.94R
$$

PAZ004>006-010>012-017>019-024>028-033>037-041-042-045-046-049>053-201300-
CENTRAL PENNSYLVANIA

CITY           SKY/WX    TMP DP  RH WIND       PRES   REMARKS
BRADFORD       CLOUDY    64  62  93 CALM      29.97R
DUBOIS         PTSUNNY   64  62  93 S5        29.96S
CLEARFIELD     FOG       64  64 100 CALM      29.97R VSB 1/4
JOHNSTOWN      CLOUDY    64  62  93 SW3       29.99R FOG
ALTOONA        CLOUDY    71  69  93 S8        29.97S FOG
STATE COLLEGE  CLOUDY    66  64  94 CALM      29.96R FOG
WILLIAMSPORT   CLOUDY    67  63  87 CALM      29.94R
SELINSGROVE    FOG       66  65  96 CALM      29.97R VSB<1/4
FT INDIANTOWN  CLOUDY    68  68  98 NE2       29.98R
CAPITAL CITY   CLOUDY    70  63  78 SE6       29.97R
HARRISBURG     CLOUDY    71  64  78 SE5       29.96R
YORK           CLOUDY    70  63  78 CALM      29.97S
$$

PAZ038>040-043-044-047-048-054-055-060>062-067>071-201300-
EASTERN PENNSYLVANIA

CITY           SKY/WX    TMP DP  RH WIND       PRES   REMARKS
SCRANTON       MOSUNNY   67  61  81 CALM      29.98R
MOUNT POCONO   MOSUNNY   64  61  90 S5        30.02R
ALLENTOWN      MOSUNNY   69  64  84 CALM      29.99R
QUAKERTOWN*    SUNNY     66  64  94 CALM      30.00R
READING        SUNNY     72  65  78 CALM      29.97R
LANCASTER      MOSUNNY   69  64  84 CALM      29.98R
COATESVILLE    CLOUDY    68  68 100 CALM      29.99F
POTTSTOWN      MOSUNNY   70  65  84 CALM      30.00R
BLUE BELL      SUNNY     70  66  88 CALM      29.98R
DOYLESTOWN     MOSUNNY   67  64  90 CALM      29.98R
WILLOW GROVE   NOT AVBL
NORTH PHILA    CLOUDY    72  63  73 SE3       30.00R
PHILADELPHIA   PTSUNNY   72  66  81 SE7       29.98R
$$



USA.gov is the U.S. government's official web portal to all federal, state and local government web resources and services.